Regional Weather Roundup
Issued by NWS

Home | Current Version | Previous Version | Text Only | Print | Product List | Glossary On
Versions: 1 2 3 4 5 6 7 8 9 10 11 12 13 14 15 16 17 18 19 20 21 22 23 24 25 26 27 28 29 30 31 32 33 34 35 36 37 38 39 40 41 42 43 44 45 46 47 48 49 50
000
ASUS43 KMKX 290211
RWRWI

WISCONSIN REGIONAL WEATHER ROUNDUP
NATIONAL WEATHER SERVICE MILWAUKEE/SULLIVAN WI
900 PM CDT FRI AUG 28 2015

NOTE: "FAIR" INDICATES FEW OR NO CLOUDS BELOW 12,000 FEET WITH NO
SIGNIFICANT WEATHER AND/OR OBSTRUCTIONS TO VISIBILITY.

WIZ001-002-006>008-014>016-023>028-290300-
NORTHWEST WISCONSIN

CITY           SKY/WX    TMP DP  RH WIND       PRES   REMARKS
SUPERIOR ARPT  CLEAR     69  62  79 S6        29.97R
ASHLAND        PTCLDY    68  63  84 S7        30.00R
HAYWARD        PTCLDY    64  60  87 S8        30.04R
SIREN          PTCLDY    66  59  76 S10       30.04R
CUMBERLAND     CLEAR     61  55  82 S6        30.07R
RICE LAKE      CLOUDY    64  58  81 S10       30.08R
CHETEK         CLOUDY   N/A N/A N/A S6        30.07R
LADYSMITH      CLOUDY    63  58  84 S14       30.09R
EAU CLAIRE     CLEAR     59  55  87 SE3       30.06R
MENOMONIE      CLEAR     60  58  93 E3        30.06R
NEW RICHMOND   CLEAR     60  55  84 S6        30.06R
OSCEOLA        CLEAR     62  62 100 SE5       30.06S
$$

WIZ003>005-009-010-017-018-290300-
NORTH CENTRAL WISCONSIN

CITY           SKY/WX    TMP DP  RH WIND       PRES   REMARKS
MANITOWISH WTR CLOUDY    63  62  96 S7        30.06R
ARBOR VITAE    PTCLDY    63  61  92 S5        30.07S
WOODRUFF       PTCLDY    63  61  92 S5        30.07S
RHINELANDER    MOCLDY    64  60  87 SW7       30.09R
EAGLE RIVER    CLOUDY    64  61  91 SW5       30.07S
LAND O LAKES   PTCLDY    64  60  88 S7        30.07R
PHILLIPS       PTCLDY    63  61  94 S6        30.06R
TOMAHAWK       MOCLDY    60  58  94 CALM      30.09R
MEDFORD        CLOUDY    59  57  94 SW9       30.10R
MERRILL        CLOUDY    62  61  97 S6        30.10R
$$

WIZ029-030-035-036-043>047-290300-
CENTRAL WISCONSIN

CITY           SKY/WX    TMP DP  RH WIND       PRES   REMARKS
WAUSAU         CLOUDY    63  60  90 SW8       30.09R
MOSINEE        NOT AVBL
MARSHFIELD     CLOUDY    60  55  83 S6        30.10R
STEVENS POINT  DRIZZLE   57  56  96 S9        30.13R
WAUPACA        RAIN      61  60  97 SW6       30.13R
WAUTOMA        RAIN      61  61 100 CALM      30.14R FOG
WISC RAPIDS    CLOUDY    59  56  89 S5        30.12R
CAMP DOUGLAS   DRIZZLE   57  57 100 E8        30.08R
$$

WIZ011>013-019>022-031-037>040-048>050-290300-
NORTHEAST WISCONSIN

CITY           SKY/WX    TMP DP  RH WIND       PRES   REMARKS
ANTIGO         CLOUDY    60  60  97 SW7       30.11R
SHAWANO        DRIZZLE   64  61  91 SW3       30.11R
OCONTO         CLOUDY    63  63 100 CALM      30.09R
STURGEON BAY   CLOUDY    64  61  88 SW5       30.11R
GREEN BAY      LGT RAIN  63  61  93 SW5       30.10R
MANITOWOC      LGT RAIN  64  62  93 MISG      30.10R FOG
APPLETON       LGT RAIN  63  61  94 SW7       30.10R
CLINTONVILLE   DRIZZLE   61  57  88 SW9       30.11R
OSHKOSH        LGT RAIN  61  57  87 SW3       30.11R FOG
$$

WIZ032>034-041-042-053>061-290300-
SOUTHWEST WISCONSIN

CITY           SKY/WX    TMP DP  RH WIND       PRES   REMARKS
LA CROSSE      LGT RAIN  59  57  93 E3        30.05S
SPARTA         DRIZZLE   57  56  94 SE3       30.08R
VIROQUA        CLOUDY    58  58 100 E10       30.07R
BOSCOBEL       LGT RAIN  63  61  93 NE5       30.02S
PRAIRIE DU CHI HVY RAIN  62  60  95 NE7       30.00R
PLATTEVILLE    CLOUDY    64  63  97 E8        30.03R
$$

WIZ056-057-062-063-064-067-068-290300-
SOUTH CENTRAL WISCONSIN

CITY           SKY/WX    TMP DP  RH WIND       PRES   REMARKS
REEDSBURG      DRIZZLE   59  58  96 E5        30.06S
BARABOO/DELLS  LGT RAIN  59  57  92 NE12      30.08R
LONE ROCK      LGT RAIN  64  61  90 E13       30.04F
MINERAL POINT  HVY RAIN  63  61  94 E13       30.04S
MADISON        RAIN      64  62  93 SE6       30.08R FOG
MIDDLETON      CLOUDY    65  64  97 SE7       30.07R
WATERTOWN      LGT RAIN  62  62 100 E5        30.08R
MONROE         RAIN      63  61  94 E9G17     30.05F
JANESVILLE     NOT AVBL
$$

WIZ051-052-058>065-066-070>072-290300-
SOUTHEAST WISCONSIN

CITY           SKY/WX    TMP DP  RH WIND       PRES   REMARKS
MILWAUKEE      LGT RAIN  65  62  90 N3        30.10R
WAUKESHA       PTCLDY    63  63 100 NE3       30.10F
MILWAUKEE/TIMM RAIN      64  61  88 N8        30.11S
RACINE         CLOUDY    64  61  90 CALM      30.11R
BURLINGTON     CLOUDY    62  61  97 CALM      30.09R
KENOSHA        CLOUDY    64  60  87 E6        30.09S
FOND DU LAC    LGT RAIN  61  58  90 SW6       30.12R
SHEBOYGAN      LGT RAIN  63  61  93 S6        30.12R FOG
WEST BEND      RAIN      61  57  88 CALM      30.11S
JUNEAU         LGT RAIN  60  57  88 E7        30.10R
$$

LSZ147-162-290300-
LAKE SUPERIOR

STATION/POSITION TIME  TEMP    WIND        PRES    WAVE
                       AIR SEA DIR/SP/G            HT/PER
                 (UTC) (F)     (DEG/KT/KT) (MB)    (FT/S)
W MID LAKE BUOY  0150   61 56  180/ 14/ 14 1013.8R   1
DEVILS ISLAND    0200   72     200/ 13/ 16 1014.0R
PORT WING        0100   74     200/  7/ 11 1014.6R
SAXON HARBOR     0140   71     190/  8/ 15 1014.9R
$$

LMZ867-665-643>646-290300-
LAKE MICHIGAN

STATION/POSITION TIME  TEMP    WIND        PRES    WAVE
                       AIR SEA DIR/SP/G            HT/PER
                 (UTC) (F)     (DEG/KT/KT) (MB)    (FT/S)
CHAMBERS ISLAND  0100   65     180/  7/ 11 1017.3S
S GREEN BAY BUOY 0200   63 62  240/  6/  6 1020.3R
N MID LAKE BUOY  0150   63 64  220/ 19/ 21 1017.0R   4/ 5
NORTHPORT PIER   0100   67     200/  4/  9 1017.3S
SISTER BAY       0134   66     200/  9/ 11   N/A
ALGOMA LAKESHORE 0114          220/  8/  9   N/A
SHEBOYGAN LAKESH 0200   63     210/ 10/ 10 1020.1R
PORT WASHINGTON  0100   58      CALM  /  1 1020.0R
ATWATER BUOY     0200   52 48  360/  8/ 10 1020.6R
MILWAUKEE LAKESH 0100   65      20/  3/  4   N/A
S MID LAKE BUOY  0150   68 69   60/  4/  6 1019.2R   1
KENOSHA   LAKESH 0200   61      10/  3/  3 1018.6S
$$

TC  - TEMPERATURE IN CELSIUS
VSB - VISIBILITY IN STATUTE MILES
WCI - WIND CHILL INDEX
HX  - HEAT INDEX




USA.gov is the U.S. government's official web portal to all federal, state and local government web resources and services.